TimeEST,TemperatureF,Dew PointF,Humidity,Sea Level PressureIn,VisibilityMPH,Wind Direction,Wind SpeedMPH,Gust SpeedMPH,PrecipitationIn,Events,Conditions,WindDirDegrees,DateUTC
12:56 AM,51.1,34.0,52,29.99,10.0,WNW,10.4,-,0.00,,Light Drizzle,290,2013-11-12 05:56:00
1:56 AM,50.0,35.1,57,29.98,10.0,WNW,4.6,-,0.00,,Overcast,290,2013-11-12 06:56:00
2:56 AM,50.0,34.0,54,29.98,10.0,NW,12.7,-,N/A,,Overcast,320,2013-11-12 07:56:00
3:56 AM,46.0,34.0,63,30.01,10.0,NNW,18.4,26.5,N/A,,Overcast,330,2013-11-12 08:56:00
4:41 AM,39.2,30.2,70,30.05,10.0,North,17.3,31.1,N/A,,Overcast,360,2013-11-12 09:41:00
4:56 AM,39.0,28.9,67,30.08,10.0,North,17.3,28.8,0.00,,Drizzle,350,2013-11-12 09:56:00
5:56 AM,36.0,28.9,76,30.13,8.0,North,18.4,27.6,0.00,Rain-Snow,Light Rain,360,2013-11-12 10:56:00
6:15 AM,33.8,28.4,81,30.14,6.0,North,13.8,21.9,0.00,Rain-Snow,Light Rain,360,2013-11-12 11:15:00
6:54 AM,33.8,24.8,70,30.18,3.0,NNW,15.0,21.9,0.00,Snow,Light Snow,340,2013-11-12 11:54:00
6:56 AM,33.1,25.0,72,30.19,3.0,NNW,12.7,21.9,0.00,Snow,Light Snow,340,2013-11-12 11:56:00
7:56 AM,34.0,21.0,59,30.22,10.0,North,11.5,18.4,0.00,,Scattered Clouds,350,2013-11-12 12:56:00
8:56 AM,35.1,19.9,54,30.23,10.0,North,12.7,-,N/A,,Overcast,350,2013-11-12 13:56:00
9:56 AM,36.0,19.9,52,30.25,10.0,NNW,12.7,19.6,N/A,,Mostly Cloudy,340,2013-11-12 14:56:00
10:56 AM,37.0,19.9,50,30.26,10.0,NNW,12.7,-,N/A,,Overcast,330,2013-11-12 15:56:00
11:56 AM,37.0,17.1,44,30.25,10.0,North,12.7,21.9,N/A,,Mostly Cloudy,350,2013-11-12 16:56:00
12:56 PM,37.0,15.1,41,30.25,10.0,North,10.4,20.7,N/A,,Scattered Clouds,350,2013-11-12 17:56:00
1:56 PM,37.9,12.9,36,30.25,10.0,NNW,15.0,23.0,N/A,,Mostly Cloudy,330,2013-11-12 18:56:00
2:56 PM,37.9,12.0,35,30.27,10.0,NNW,17.3,-,N/A,,Mostly Cloudy,330,2013-11-12 19:56:00
3:56 PM,37.9,10.0,32,30.28,10.0,NNW,19.6,24.2,N/A,,Mostly Cloudy,330,2013-11-12 20:56:00
4:56 PM,36.0,8.1,31,30.30,10.0,North,15.0,21.9,N/A,,Scattered Clouds,350,2013-11-12 21:56:00
5:56 PM,35.1,9.0,34,30.32,10.0,NNW,12.7,18.4,N/A,,Scattered Clouds,330,2013-11-12 22:56:00
6:56 PM,35.1,9.0,34,30.34,10.0,NNW,13.8,23.0,N/A,,Partly Cloudy,330,2013-11-12 23:56:00
7:56 PM,34.0,10.0,37,30.35,10.0,NNW,10.4,-,N/A,,Partly Cloudy,330,2013-11-13 00:56:00
8:56 PM,32.0,12.0,44,30.37,10.0,NW,4.6,17.3,N/A,,Partly Cloudy,310,2013-11-13 01:56:00
9:56 PM,30.9,14.0,50,30.37,10.0,NW,6.9,-,N/A,,Clear,320,2013-11-13 02:56:00
10:56 PM,30.0,16.0,56,30.37,10.0,NW,10.4,-,N/A,,Partly Cloudy,310,2013-11-13 03:56:00
11:56 PM,33.1,17.1,52,30.38,10.0,NW,6.9,-,N/A,,Mostly Cloudy,310,2013-11-13 04:56:00